M0ZPG Weather Reports


time (UTC)temp
C
wind
direction
speed
KPH
gust
KPH
rain 1hr
cm
rain 24hr
cm
rain mn
cm
humidity
%
barometer
mb
20260905040004 12 214 0.0 3.2 0.00 0.08 0.00 88 1020.2
20260905035403 12 214 0.0 4.8 0.00 0.08 0.00 88 1020.1
20260905034503 12 214 0.0 4.8 0.00 0.08 0.00 88 1019.9
20260905033605 12 214 0.0 3.2 0.00 0.08 0.00 88 1019.9
20260905032703 12 195 0.0 4.8 0.00 0.08 0.00 88 1019.8
20260905031805 12 162 0.0 3.2 0.00 0.08 0.00 87 1019.7
20260905030903 12 161 0.0 3.2 0.00 0.08 0.00 87 1019.6
20260905030214 12 177 0.0 6.4 0.00 0.08 0.00 87 1019.5
20260905025403 12 192 0.0 8.0 0.00 0.08 0.00 87 1019.4
20260905024505 12 197 0.0 4.8 0.00 0.08 0.00 87 1019.4
20260905023603 12 241 0.0 6.4 0.00 0.08 0.00 87 1019.3
20260905022703 12 240 0.0 4.8 0.00 0.08 0.00 87 1019.2
20260905021803 13 235 0.0 4.8 0.00 0.08 0.00 87 1019.2
20260905020905 13 215 0.0 1.6 0.00 0.08 0.00 87 1019.1
20260905020005 13 218 0.0 3.2 0.00 0.08 0.00 86 1019.1
20260905015406 13 218 0.0 3.2 0.00 0.08 0.00 86 1019.0
20260905014503 13 218 0.0 3.2 0.00 0.08 0.00 86 1019.0
20260905013605 13 216 0.0 4.8 0.00 0.08 0.00 86 1019.0
20260905012703 13 233 0.0 6.4 0.00 0.08 0.00 86 1018.9
20260905011805 13 235 0.0 3.2 0.00 0.08 0.00 85 1018.9
20260905010906 13 238 0.0 4.8 0.00 0.08 0.00 85 1018.9
20260905010004 13 238 0.0 3.2 0.00 0.08 0.00 85 1018.9
20260905005617 13 238 0.0 3.2 0.00 0.08 0.00 84 1018.9
20260905004503 13 238 0.0 4.8 0.00 0.08 0.00 84 1018.9
20260905003605 13 238 0.0 3.2 0.00 0.08 0.00 84 1018.9
20260905002703 13 237 0.0 4.8 0.00 0.08 0.00 84 1018.8
20260905001805 13 237 0.0 4.8 0.00 0.08 0.00 84 1018.8
20260905000905 13 237 0.0 4.8 0.00 0.08 0.00 83 1018.7
20260904235406 13 247 0.0 3.2 0.00 0.08 0.00 83 1018.6
20260904234507 13 247 0.0 3.2 0.00 0.08 0.00 83 1018.7
20260904233817 13 247 0.0 4.8 0.00 0.08 0.00 82 1018.6
20260904232706 13 250 0.0 6.4 0.00 0.08 0.00 82 1018.6
20260904231805 13 252 0.0 3.2 0.00 0.08 0.00 81 1018.6
20260904230906 14 252 0.0 6.4 0.00 0.08 0.00 81 1018.4
20260904230007 14 251 1.6 6.4 0.00 0.08 0.00 81 1018.3
20260904225618 14 250 0.0 3.2 0.00 0.08 0.08 81 1018.3
20260904224506 14 262 0.0 4.8 0.00 0.08 0.08 80 1018.2
20260904223605 14 262 0.0 4.8 0.00 0.08 0.08 80 1018.3
20260904222705 14 261 0.0 3.2 0.00 0.08 0.08 80 1018.2
20260904222017 14 233 1.6 6.4 0.00 0.08 0.08 79 1018.2
20260904220003 15 221 1.6 3.2 0.00 0.08 0.08 78 1018.1
20260904214505 15 243 0.0 4.8 0.00 0.08 0.08 77 1018.1
20260904213608 15 244 0.0 4.8 0.00 0.08 0.08 77 1018.0
20260904212705 15 241 0.0 4.8 0.00 0.08 0.08 77 1018.0
20260904211804 15 239 0.0 3.2 0.00 0.08 0.08 76 1017.9
20260904210904 16 237 0.0 3.2 0.00 0.08 0.08 76 1017.8
20260904210218 16 236 0.0 3.2 0.00 0.08 0.08 76 1017.7
20260904205403 16 234 0.0 4.8 0.00 0.08 0.08 76 1017.8
20260904204717 16 245 0.0 3.2 0.00 0.08 0.08 76 1017.7
20260904203605 16 251 1.6 4.8 0.00 0.08 0.08 75 1017.8
20260904202916 16 246 1.6 6.4 0.00 0.08 0.08 75 1017.7
20260904201805 16 240 0.0 3.2 0.00 0.08 0.08 74 1017.7
20260904200905 16 239 0.0 3.2 0.00 0.08 0.08 73 1017.6
20260904200005 17 238 0.0 3.2 0.00 0.08 0.08 72 1017.7
20260904195403 17 238 0.0 4.8 0.00 0.08 0.08 72 1017.6
20260904194505 17 240 1.6 8.0 0.00 0.08 0.08 71 1017.4
20260904193605 17 246 1.6 6.4 0.00 0.08 0.08 70 1017.2
20260904192705 17 231 1.6 8.0 0.00 0.08 0.08 70 1016.9
20260904191806 17 232 1.6 4.8 0.00 0.08 0.08 69 1016.8
20260904190003 18 249 1.6 11.3 0.00 0.08 0.08 67 1016.4
20260904185408 18 241 1.6 4.8 0.00 0.08 0.08 66 1016.2
20260904183815 18 249 1.6 6.4 0.00 0.08 0.08 64 1015.8
20260904182933 18 251 1.6 8.0 0.00 0.08 0.08 64 1015.8
20260904181805 18 268 1.6 6.4 0.00 0.08 0.08 64 1015.7
20260904180906 18 241 1.6 4.8 0.00 0.08 0.08 63 1015.6
20260904180008 18 245 1.6 11.3 0.00 0.08 0.08 63 1015.5
20260904175403 18 242 3.2 14.5 0.00 0.08 0.08 63 1015.4
20260904174507 18 238 1.6 9.7 0.00 0.08 0.08 63 1015.3
20260904173821 18 239 1.6 11.3 0.00 0.08 0.08 64 1015.3
20260904172708 18 252 3.2 9.7 0.00 0.08 0.08 63 1015.1
20260904171805 19 237 3.2 9.7 0.00 0.08 0.08 63 1015.1
20260904170905 19 239 1.6 11.3 0.00 0.08 0.08 62 1015.1
20260904170008 19 199 1.6 11.3 0.00 0.08 0.08 62 1015.2
20260904165617 19 230 3.2 11.3 0.00 0.08 0.08 62 1015.1
20260904164508 19 240 3.2 11.3 0.00 0.08 0.08 61 1015.1
20260904163817 19 244 1.6 9.7 0.00 0.08 0.08 61 1014.9
20260904162703 20 231 1.6 11.3 0.00 0.08 0.08 60 1014.8
20260904161805 20 264 1.6 11.3 0.00 0.08 0.08 60 1014.7
20260904160905 20 240 3.2 14.5 0.00 0.08 0.08 60 1014.4
20260904160004 20 207 1.6 8.0 0.00 0.08 0.08 60 1014.5
20260904155403 20 254 3.2 12.9 0.00 0.08 0.08 59 1014.4
20260904154503 20 235 3.2 12.9 0.00 0.08 0.08 59 1014.5
20260904153605 20 237 3.2 12.9 0.00 0.08 0.08 59 1014.5
20260904152914 20 247 3.2 9.7 0.00 0.08 0.08 59 1014.7
20260904151806 20 244 3.2 14.5 0.00 0.08 0.08 59 1014.5
20260904151114 20 245 3.2 12.9 0.00 0.08 0.08 59 1014.5
20260904150216 20 245 3.2 16.1 0.00 0.08 0.08 59 1014.3
20260904145618 20 249 3.2 11.3 0.00 0.08 0.08 59 1014.4
20260904144504 20 256 3.2 12.9 0.00 0.08 0.08 59 1014.2
20260904143605 20 269 3.2 9.7 0.00 0.08 0.08 59 1014.2
20260904142705 20 267 3.2 12.9 0.00 0.08 0.08 59 1014.1
20260904141805 20 254 3.2 11.3 0.00 0.08 0.08 60 1014.1
20260904140905 20 243 1.6 12.9 0.00 0.08 0.08 59 1014.1
20260904140005 20 252 3.2 11.3 0.00 0.08 0.08 60 1014.3
20260904135405 20 260 3.2 12.9 0.00 0.08 0.08 60 1014.3
20260904134503 20 246 3.2 16.1 0.00 0.08 0.08 60 1013.9
20260904133813 20 250 3.2 16.1 0.00 0.08 0.08 61 1014.0
20260904132916 21 271 3.2 16.1 0.00 0.08 0.08 63 1014.1
20260904131803 21 256 3.2 12.9 0.00 0.08 0.08 63 1013.9
20260904131115 21 280 3.2 9.7 0.00 0.08 0.08 62 1014.1
20260904130004 21 261 3.2 14.5 0.00 0.08 0.08 63 1013.9
20260904125405 21 249 3.2 11.3 0.00 0.08 0.08 64 1013.7
20260904124506 21 241 3.2 16.1 0.00 0.08 0.08 64 1013.2
20260904123603 21 257 3.2 16.1 0.00 0.08 0.08 65 1013.3
20260904122703 21 243 3.2 16.1 0.00 0.08 0.08 64 1013.3
20260904122013 21 245 3.2 11.3 0.00 0.08 0.08 65 1013.3
20260904120904 21 254 3.2 11.3 0.00 0.08 0.08 66 1013.1
20260904120218 21 249 3.2 11.3 0.00 0.08 0.08 66 1013.1
20260904115406 21 253 3.2 12.9 0.00 0.08 0.08 67 1012.7
20260904114505 21 253 3.2 14.5 0.00 0.08 0.08 67 1013.0
20260904113606 21 261 3.2 11.3 0.00 0.08 0.08 69 1012.7
20260904112705 21 302 3.2 8.0 0.00 0.08 0.08 69 1012.5
20260904111805 21 293 3.2 14.5 0.00 0.08 0.08 68 1012.4
20260904110904 21 271 3.2 14.5 0.00 0.08 0.08 69 1012.4
20260904110005 21 255 3.2 8.0 0.00 0.08 0.08 71 1012.3
20260904105403 21 256 4.8 14.5 0.00 0.08 0.08 73 1012.4
20260904104718 21 249 3.2 14.5 0.00 0.08 0.08 74 1012.6
20260904103603 21 245 3.2 14.5 0.00 0.08 0.08 75 1012.3
20260904102703 21 252 3.2 16.1 0.00 0.08 0.08 75 1012.2
20260904101805 20 247 3.2 14.5 0.00 0.08 0.08 78 1012.1
20260904100906 20 260 4.8 12.9 0.00 0.08 0.08 79 1012.0
20260904100004 20 260 3.2 12.9 0.00 0.08 0.08 82 1011.9
20260904095616 20 252 1.6 12.9 0.00 0.08 0.08 82 1012.0
20260904094503 20 246 3.2 11.3 0.00 0.08 0.08 84 1011.7
20260904093606 19 261 1.6 6.4 0.00 0.08 0.08 86 1011.7
20260904092705 19 252 1.6 11.3 0.00 0.08 0.08 88 1011.8
20260904091803 18 209 1.6 8.0 0.00 0.08 0.08 88 1011.9
20260904090905 18 252 1.6 11.3 0.00 0.08 0.08 89 1011.6
20260904090005 18 227 1.6 6.4 0.08 0.08 0.08 89 1011.7
20260904085617 18 229 1.6 11.3 0.08 0.08 0.08 89 1011.7
20260904084719 18 249 3.2 9.7 0.08 0.08 0.08 89 1011.5
20260904083605 19 202 1.6 11.3 0.08 0.08 0.08 90 1011.3
20260904082914 19 241 3.2 11.3 0.08 0.08 0.08 91 1011.4
20260904081803 19 253 4.8 14.5 0.08 0.08 0.08 89 1011.0
20260904081113 20 253 4.8 14.5 0.08 0.08 0.08 89 1010.7
20260904080003 20 243 4.8 17.7 0.00 0.00 0.00 87 1010.2
20260904075406 20 221 6.4 19.3 0.00 0.00 0.00 87 1010.1
20260904074504 21 234 6.4 22.5 0.00 0.00 0.00 84 1010.0
20260904073603 21 240 6.4 20.9 0.00 0.00 0.00 83 1009.9
20260904072703 21 230 6.4 22.5 0.00 0.00 0.00 83 1009.8
20260904071804 21 233 6.4 22.5 0.00 0.00 0.00 82 1009.7
20260904070905 21 225 4.8 19.3 0.00 0.00 0.00 82 1009.7
20260904070005 21 223 4.8 19.3 0.00 0.00 0.00 83 1009.6
20260904065403 21 225 6.4 19.3 0.00 0.00 0.00 83 1009.6
20260904064505 20 231 4.8 19.3 0.00 0.00 0.00 83 1009.6
20260904063606 20 217 6.4 19.3 0.00 0.00 0.00 83 1009.7
20260904062706 20 188 4.8 16.1 0.00 0.00 0.00 84 1009.7
20260904061806 20 223 4.8 19.3 0.00 0.00 0.00 84 1009.8
20260904060905 20 232 6.4 22.5 0.00 0.00 0.00 85 1010.2
20260904060003 20 209 6.4 25.7 0.00 0.00 0.00 85 1010.4
20260904055403 20 203 4.8 25.7 0.00 0.00 0.00 86 1010.2
20260904054503 20 247 6.4 22.5 0.00 0.00 0.00 86 1010.2
20260904053813 20 234 4.8 22.5 0.00 0.00 0.00 86 1010.1
20260904052703 20 225 4.8 16.1 0.00 0.00 0.00 86 1010.2
20260904051803 20 212 4.8 17.7 0.00 0.00 0.00 86 1009.7
20260904050903 20 205 6.4 16.1 0.00 0.00 0.00 86 1010.0
20260904050003 20 216 6.4 19.3 0.00 0.00 0.00 85 1010.2
20260904045409 20 210 4.8 19.3 0.00 0.00 0.00 85 1010.5
20260904044503 20 180 4.8 16.1 0.00 0.00 0.00 85 1010.7
20260904043605 20 218 4.8 19.3 0.00 0.00 0.00 85 1010.6
20260904042703 20 226 6.4 16.1 0.00 0.00 0.00 85 1010.7
20260904041805 20 212 4.8 19.3 0.00 0.00 0.00 84 1010.9
20260904041116 20 216 4.8 20.9 0.00 0.00 0.00 85 1010.9
20260904040218 20 238 4.8 17.7 0.00 0.00 0.00 85 1010.9